Regional Weather Roundup
Issued by NWS Upton, NY

Current Version | Previous Version | Graphics & Text | Print | Product List | Glossary Off
Versions: 1 2 3 4 5 6 7 8 9 10 11 12 13 14 15 16 17 18 19 20 21 22 23 24 25 26 27 28 29 30 31 32 33 34 35 36 37 38 39 40 41 42 43 44 45 46 47 48 49 50

000
ASUS41 KOKX 310604
RWROKX

REGIONAL WEATHER ROUNDUP
NATIONAL WEATHER SERVICE NEW YORK NY
200 AM EDT MON AUG 31 2015

NOTE: "FAIR" INDICATES FEW OR NO CLOUDS BELOW 12,000 FEET WITH NO
SIGNIFICANT WEATHER AND/OR OBSTRUCTIONS TO VISIBILITY.

NYZ071-072-176-178-NJZ106-104-310700-
NEW YORK CITY METRO AREA


CITY           SKY/WX    TMP DP  RH WIND       PRES   REMARKS
CENTRAL PARK   FAIR      78  67  68 MISG      30.05F
LAGUARDIA APRT MOCLDY    80  66  62 SW9       30.02S
KENNEDY INTL   CLOUDY    77  67  71 SW8       30.04F
NEWARK/LIBERTY MOCLDY    79  66  64 SW9       30.03S
BRNX BOT. GARD   N/A     79  64  61 SW3       30.03F
TETERBORO      MOCLDY    79  64  60 SW8       30.01F
$$

NYZ177-179-078>081-310700-
LONG ISLAND NEW YORK

CITY           SKY/WX    TMP DP  RH WIND       PRES   REMARKS
FARMINGDALE    FAIR      76  68  76 SW6       30.03F
ISLIP          MOCLDY    74  70  87 SW8       30.01F
SHIRLEY        MOCLDY    76  70  82 SW7       30.03F
WESTHAMPTON    CLOUDY    75  70  84 SW13      30.04F
MONTAUK POINT    N/A     76  70  82 SW7       30.02F
$$

NYZ052-065-067-310700-
HUDSON VALLEY

CITY           SKY/WX    TMP DP  RH WIND       PRES   REMARKS
WHITE PLAINS   FAIR      72  66  81 CALM      30.02F
NEWBURGH       CLEAR     72  70  94 W7        30.04F
MONTGOMERY     FAIR      69  67  93 SW6       30.03S FOG
POUGHKEEPSIE   FAIR      68  66  93 CALM      30.01F FOG
ALBANY         MOCLDY    68  64  87 SW3       30.02R
$$

NJZ001-105-106-008-010-013-015-019>022-104-310700-
NEW JERSEY

CITY           SKY/WX    TMP DP  RH WIND       PRES   REMARKS
NEWARK/LIBERTY MOCLDY    79  66  64 SW9       30.03S
TETERBORO      MOCLDY    79  64  60 SW8       30.01F
CALDWELL       FAIR      76  65  68 CALM      30.03F
MORRISTOWN     FAIR      75  63  64 SW3       30.04F
SOMERVILLE     FAIR      73  66  78 CALM      30.03S
SUSSEX         MOCLDY    69  67  93 CALM      30.04F FOG
ANDOVER          N/A     68  66  93 CALM      30.06S
TRENTON        NOT AVBL
MILLVILLE      MOCLDY    75  69  81 SW3       30.07F
ATLANTIC CITY  FAIR      76  67  73 SW7       30.07F
WRIGHTSTOWN    FAIR      73  65  77 SW6       30.03F
TOMS RIVER     FAIR      72  64  78 SW3       30.06F
BELMAR         FAIR      75  63  64 SW7       30.05F
$$

PAZ047>061-062-071-310700-
EASTERN PENNSYLVANIA

CITY           SKY/WX    TMP DP  RH WIND       PRES   REMARKS
PHILADELPHIA   NOT AVBL
ALLENTOWN      FAIR      71  67  87 CALM      30.05F
SCRANTON       FAIR      71  66  84 CALM      30.07S
$$

CTZ002-004>006-009-010-012-RIZ004-006-007-MAZ004-011-015-310700-
SOUTHERN NEW ENGLAND
 IN CT

CITY           SKY/WX    TMP DP  RH WIND       PRES   REMARKS
BRADLEY INTL   MOCLDY    68  66  93 CALM      30.00F
HARTFORD       FAIR      71  68  90 CALM      30.00F
DANBURY        FAIR      69  65  86 CALM      30.04F
WTRBRY/OXFORD  FAIR      70  63  78 CALM      30.05S
BRIDGEPORT     FAIR      77  71  82 SW8       30.01F
MERIDEN        FAIR      70  67  90 CALM      30.01F
NEW HAVEN      FAIR      75  71  87 SW6       30.01F
CHESTER        NOT AVBL
GROTON         FAIR      73  71  93 SW3       30.00F
WILLIMANTIC    CLOUDY    68  66  93 CALM      30.01F FOG

 IN RI

CITY           SKY/WX    TMP DP  RH WIND       PRES   REMARKS
PROVIDENCE     FAIR      72  68  87 SW5       30.01F
BLOCK ISLAND   FAIR      72  70  94 SW12      30.02F
WESTERLY       MOCLDY    72  69  90 CALM      30.01F

 IN MA

CITY           SKY/WX    TMP DP  RH WIND       PRES   REMARKS
BOSTON         NOT AVBL
WORCESTER      FAIR      69  62  78 W8        30.03F
WESTFIELD      FAIR      65  64  97 CALM      30.00F FOG
PROVINCETOWN   CLOUDY    72  63  73 SW7       29.99F
NANTUCKET      MOCLDY    72  70  93 SW8       30.02F
$$

ANZ330-335-338-340-345-350-353-355-310700-
COASTAL MARINE OBSERVATIONS


STATION/POSITION TIME  SKY/WX   TEMP    WIND        PRES    VSBY  WAVE
                                AIR SEA DIR/SP/G                  HT/PER
                 (UTC)          (F)     (DEG/KT/KT) (MB)    (MI)  (FT/S)
NY HARB ENTRANCE 0450            77 76  220/ 12/ 14 1017.2          3/10
4S FIRE IS       NOT AVBL
20S FIRE ISLAND  0450            76 74  230/ 14/ 17 1017.4          4/ 5
GREAT SOUTH BAY  0530            76 78  250/ 12/ 16   N/A
23SW MTP         0550            76 73  240/ 17/ 21 1016.2          4/ 5
HUDSON CANYON    NOT AVBL
KINGS POINT      NOT AVBL
EXECUTION ROCKS  0500            77     170/  6/ 10   N/A
CENTRAL LI SOUND NOT AVBL
EASTERN LI SOUND 0500            72 70  130/  2/  2   N/A
ROBBINS REEF     NOT AVBL
$$


>>>>>>>>>>>>>>>>>>>>>>>>>>>> KEY <<<<<<<<<<<<<<<<<<<<<<<<<<<
>                                                          <
>     SKY/WX - SKY CONDITION/PRESENT WEATHER               <
>     TMP    - TEMPERATURE IN FAHRENHEIT                   <
>     DP     - DEWPOINT IN FAHRENHEIT                      <
>     RH     - RELATIVE HUMIDITY IN PERCENT                <
>     WIND   - DIRECTION AND SPEED IN MPH                  <
>     PRES   - MEAN SEA LEVEL PRESSURE IN INCHES OF HG     <
>     WCI    - WIND CHILL INDEX                            <
>     VSB    - VISIBILITY IN MILES                         <
>     HX     - HEAT INDEX                                  <
>     TC     - TEMPERATURE IN CELSIUS                      <
>     VRB    - VARIABLE WIND DIRECTION                     <
>                                                          <
>>>>>>>>>>>>>>>>>>>>>>>>>>>> KEY <<<<<<<<<<<<<<<<<<<<<<<<<<<




USA.gov is the U.S. government's official web portal to all federal, state and local government web resources and services.